Location: Washington
(38.8950°N, 77.0370°W)
Time: 05:46:00
(UTC-04:00)

Daily predictions for brighter satellites

Satellite Brightness Start Highest point End
(mag) Time Altitude Azimuth Time Altitude Azimuth Time Altitude Azimuth
NOSS 3-1 (A) 4.0 00:04:41 10° NW 00:12:20 68° WSW 00:12:56 66° SW
Cosmos 1943 Rocket 2.9 00:21:41 46° NE 00:21:41 46° NE 00:25:36 10° NNE
Terra 4.1 00:23:26 16° W 00:23:26 16° W 00:25:46 10° NW
Cosmos 2100 Rocket 4.5 00:26:37 52° ENE 00:26:37 52° ENE 00:31:55 10° NNE
Cosmos 1459 Rocket 4.4 00:34:36 52° NE 00:34:36 52° NE 00:39:26 10° NNE
ATLAS 2AS CENTAUR R/B 3.0 00:25:27 10° NNW 00:33:34 71° NE 00:34:23 66° E
USA 234 3.9 00:35:50 10° NE 00:42:08 52° NW 00:45:23 28° W
MOS 1-B Rocket 4.3 00:45:42 66° NE 00:45:42 66° NE 00:52:13 10° N
Cosmos 2061 Rocket 4.2 00:51:28 69° NNE 00:51:28 69° NNE 00:57:04 10° N
Cosmos 1802 Rocket 4.3 00:56:59 64° NNE 00:56:59 64° NNE 01:02:18 10° N
Cosmos 2173 Rocket 4.2 00:58:53 69° N 00:58:53 69° N 01:04:25 10° N
CZ-2C R/B 4.4 01:06:04 32° NE 01:06:04 32° NE 01:09:12 10° N
Cosmos 1725 Rocket 4.4 01:19:34 56° NE 01:19:34 56° NE 01:24:40 10° NNE
ATLAS 3B CENTAUR R/B 4.4 01:24:02 52° SSE 01:24:02 52° SSE 01:47:54 10° E
ATLAS CENTAUR R/B 4.2 01:26:45 15° ENE 01:26:45 15° ENE 01:27:53 10° ENE
Cosmos 2098 Rocket 4.3 01:31:20 81° ENE 01:31:20 81° ENE 01:38:46 10° N
SeaSat 1 4.5 01:31:59 20° ENE 01:32:56 21° NE 01:36:34 10° N
CZ-2C R/B 3.5 01:33:19 10° N 01:37:09 47° NNW 01:37:09 47° NNW
Tsikada Rocket 4.2 01:33:16 10° N 01:38:51 71° N 01:38:51 71° N
Cosmos 2227 Rocket 2.9 01:51:39 10° NNW 01:56:52 49° NE 01:56:52 49° NE
Cosmos 1943 Rocket 4.3 02:03:11 15° WNW 02:04:23 16° NW 02:07:45 10° NNW
Cosmos 1898 Rocket 4.2 02:12:33 10° N 02:17:17 52° NE 02:17:17 52° NE
Cosmos 2297 Rocket 2.7 02:12:23 10° NNW 02:17:55 52° ENE 02:18:02 52° ENE
Cosmos 2278 4.0 02:19:10 64° N 02:19:10 64° N 02:23:57 10° NNE
Cosmos 2233 Rocket 4.1 02:20:31 62° NW 02:20:31 62° NW 02:26:01 10° N
Cosmos 2369 4.0 02:21:59 65° NNE 02:21:59 65° NNE 02:26:49 10° NNE
Cosmos 1464 Rocket 4.2 02:22:37 59° E 02:22:45 59° E 02:28:58 10° NNE
ATLAS 2AS CENTAUR R/B 4.4 02:17:43 10° NW 02:21:47 22° W 02:21:47 22° W
Cosmos 1937 Rocket 4.4 02:19:21 10° N 02:24:18 43° ENE 02:24:22 43° ENE
Meteor 2-5 Rocket 4.0 02:29:17 10° N 02:35:09 66° E 02:35:22 65° E
Cosmos 1656 3.7 02:44:01 74° ENE 02:44:01 74° ENE 02:49:18 10° NNE
ARIANE 5 R/B 4.3 02:44:12 10° NE 02:48:13 22° E 02:49:12 21° ESE
Cosmos 1513 Rocket 4.3 02:49:03 76° SE 02:49:20 78° E 02:55:24 10° N
CZ-2D R/B 4.1 02:49:09 10° NE 02:53:00 19° E 02:54:53 16° ESE
AQUA 4.2 02:52:12 10° NNE 02:56:24 60° ENE 02:56:24 60° ENE
BREEZE-M DEB (TANK) 3.8 02:51:00 10° WNW 02:58:46 48° WNW 02:58:46 48° WNW
ATLAS CENTAUR R/B 2.6 03:03:04 44° NW 03:03:04 44° NW 03:07:35 10° NNE
Meteor 1-24 Rocket 4.0 02:59:25 10° N 03:05:12 68° E 03:06:30 52° SE
Cosmos 1814 Rocket 4.3 03:06:30 58° NW 03:06:30 58° NW 03:11:34 10° N
IRS-P3 4.1 03:02:52 10° N 03:08:06 68° WNW 03:08:06 68° WNW
Cosmos 1891 Rocket 4.2 03:08:05 73° SW 03:08:33 77° W 03:14:42 10° N
Meteor 1-22 Rocket 4.4 03:08:04 61° SSE 03:09:02 73° E 03:15:09 10° NNE
SeaSat 1 3.4 03:11:46 36° WNW 03:11:46 36° WNW 03:14:56 10° NW
ADEOS 3.8 03:05:49 10° NNE 03:10:59 60° E 03:11:27 57° SE
Cosmos 1441 Rocket 4.4 03:08:00 10° N 03:11:37 41° ENE 03:11:37 41° ENE
IRAS Rocket 4.1 03:06:49 10° NNE 03:12:30 82° ESE 03:13:05 72° S
Cosmos 1408 Rocket 4.4 03:08:20 10° N 03:12:34 44° E 03:12:56 43° E
Spot 4 Rocket 4.4 03:08:27 10° NNE 03:13:33 55° E 03:14:09 52° SE
CBERS-1 3.9 03:10:38 10° N 03:15:46 79° WNW 03:15:47 79° WNW
Cosmos 1766 Rocket 4.3 03:14:45 10° N 03:19:03 48° E 03:19:36 46° ESE
Resurs 1-4 Rocket 3.3 03:17:19 10° NNE 03:22:08 36° E 03:23:57 28° SE
Cosmos 1697 Rocket 2.6 03:21:51 65° W 03:22:21 69° WNW 03:28:01 10° NNE
IRS-1D 4.3 03:17:48 10° NNE 03:22:31 42° E 03:23:43 36° SE
Cosmos 990 Rocket 3.8 03:18:06 10° NNW 03:23:20 75° WSW 03:23:20 75° WSW
Cosmos 2034 Rocket 4.0 03:25:17 54° WSW 03:26:04 58° W 03:32:10 10° N
BREEZE-M R/B 4.0 03:22:17 10° WNW 03:28:36 68° SW 03:35:22 10° SE
SL-08 R/B 3.9 03:30:09 43° WNW 03:30:09 43° WNW 03:33:42 10° NNW
Nadezhda 4 Rocket 3.9 03:23:01 10° N 03:29:15 87° W 03:31:08 48° S
Cosmos 1980 Rocket 2.1 03:31:15 63° SSW 03:32:12 87° ESE 03:37:55 10° NNE
Cosmos 1758 3.6 03:38:49 57° ESE 03:39:00 58° E 03:42:56 10° NNE
Cosmos 2227 Rocket 4.0 03:36:37 10° NW 03:38:39 17° WNW 03:38:39 17° WNW
Cosmos 1953 2.5 03:41:06 64° ESE 03:41:19 65° E 03:45:22 10° NNE
Cosmos 1437 3.9 03:42:07 10° N 03:45:18 40° ENE 03:45:34 39° E
Cosmos 2322 Rocket 3.0 03:43:46 28° SSE 03:46:08 43° ESE 03:51:25 10° NE
NOSS 3-4 (A) 4.0 03:40:57 10° NW 03:47:40 47° WSW 03:49:39 39° SSW
NOSS 3-4 (C) 4.0 03:41:02 10° NW 03:47:47 47° WSW 03:49:53 38° SSW
NPP 4.5 03:43:58 10° N 03:48:47 34° WNW 03:49:32 33° W
SL-16 R/B 2.6 03:45:21 19° SSE 03:49:56 80° ENE 03:56:07 10° NNW
Cosmos 841 Rocket 4.1 03:56:06 37° W 03:57:03 41° WNW 04:02:02 10° N
SL-24 R/B - RUBIN 2 4.3 03:56:07 42° SSW 03:58:12 78° ESE 04:04:33 10° NE
Cosmos 2026 Rocket 4.3 03:53:30 10° N 03:59:48 66° E 04:05:58 10° SSE
Cosmos 1763 Rocket 4.4 03:59:24 31° W 04:00:19 34° WNW 04:05:00 10° N
Cosmos 1378 4.3 03:57:20 10° NNW 03:59:52 31° WNW 03:59:52 31° WNW
Cosmos 2297 Rocket 3.8 03:57:29 10° NW 03:59:47 18° WNW 03:59:47 18° WNW
Cosmos 1076 Rocket 4.0 04:00:17 10° NNW 04:04:05 40° W 04:04:05 40° W
Cosmos 1125 Rocket 3.3 04:00:48 10° NNW 04:06:00 76° WSW 04:09:12 24° S
GPS 2-04 Rocket1 3.8 04:09:35 30° SSE 04:09:35 30° SSE 04:12:05 10° SE
Cosmos 1634 Rocket 4.0 04:06:30 33° SSW 04:09:26 71° W 04:15:45 10° N
Cosmos 2195 Rocket 4.4 04:05:14 10° N 04:11:22 88° W 04:16:23 16° S
DELTA 2 R/B (1) 3.9 04:12:49 36° SSW 04:14:40 50° SSE 04:20:03 10° E
CZ-3A R/B 3.9 04:07:23 22° WSW 04:15:16 58° NW 04:19:56 10° NE
ERS-2 3.7 04:13:31 10° NNW 04:16:21 22° WNW 04:16:21 22° WNW
Cosmos 540 Rocket 3.5 04:16:37 36° SW 04:18:41 69° WNW 04:23:51 10° NNE
SL-16 R/B 2.2 04:18:33 28° SSW 04:21:42 82° ESE 04:27:23 10° NNE
Cosmos 1092 Rocket 4.4 04:16:16 10° NNW 04:22:12 45° W 04:25:11 27° SW
MOS 1-B 4.3 04:16:24 10° NNE 04:22:14 84° WNW 04:25:53 24° SSW
Aureole 1 Rocket 4.1 04:19:01 27° SSW 04:22:43 87° WNW 04:30:30 10° NNE
Milstar 3 Cent rocket 3.1 04:21:57 27° SSW 04:22:58 29° S 04:29:01 10° ESE
Cosmos 1470 2.9 04:21:21 29° S 04:23:17 73° E 04:27:16 10° NNE
Cosmos 1500 Rocket 3.4 04:20:38 10° N 04:25:01 88° W 04:28:12 18° S
RESURS DK-1 2.2 04:21:07 10° NNW 04:25:15 77° WSW 04:29:22 10° SSE
IRS-1C Rocket 4.5 04:21:18 10° NNE 04:26:31 61° ESE 04:30:58 14° S
ARIANE 5 R/B 3.1 04:22:38 10° N 04:27:26 41° WNW 04:29:32 28° WSW
CZ-3 R/B 4.0 04:05:11 21° SW 04:28:42 49° S 04:37:52 10° ESE
Cosmos 2263 Rocket 3.4 04:24:46 10° N 04:30:05 43° ENE 04:35:22 10° SE
Cosmos 1743 Rocket 3.8 04:27:02 10° NNW 04:31:14 49° W 04:33:03 29° SSW
CZ-2D R/B 2.5 04:28:05 10° N 04:33:21 50° WNW 04:36:12 25° SW
Cosmos-2242 4.0 04:33:18 26° W 04:34:11 29° WNW 04:37:56 10° NNW
Cosmos 2221 3.7 04:31:26 10° SSE 04:35:26 41° E 04:39:29 10° NNE
Cosmos 1544 3.6 04:38:05 33° WSW 04:39:02 40° W 04:42:30 10° N
PSLV R/B 3.8 04:36:27 10° NNE 04:40:16 77° ESE 04:42:52 19° S
Cosmos 1428 Rocket 4.4 04:36:37 10° N 04:42:47 88° W 04:48:52 10° S
GEOS 3 Rocket 3.5 04:39:36 10° SSE 04:44:50 83° SW 04:50:02 10° NW
CZ-4B R/B 3.5 04:40:06 10° NNE 04:45:36 69° ESE 04:50:58 10° S
Cosmos 1733 3.2 04:48:32 21° SSW 04:50:53 63° W 04:54:41 10° N
UNKNOWN OBJECT B 3.6 04:48:02 10° N 04:51:31 33° WNW 04:53:13 22° WSW
Okean O Rocket 1.6 04:48:43 10° N 04:53:08 76° WNW 04:56:55 14° SSW
Lacrosse 5 rocket 4.1 04:53:05 10° N 04:55:39 18° NNE 04:58:14 10° ENE
Meteor 1-16 Rocket 4.5 04:52:03 10° S 04:57:58 79° E 05:03:53 10° NNE
PAYLOAD B 4.2 04:53:03 10° NNE 04:58:42 87° WNW 05:04:16 10° SSW
Cosmos 2279 Rocket 4.3 04:55:03 15° SSW 05:00:01 48° W 05:06:03 10° N
Thor Agena Rocket 3.6 04:56:18 10° SSE 05:01:19 80° ENE 05:06:24 10° NNW
Resurs 1-4 Rocket 3.2 04:57:27 10° N 05:01:48 27° WNW 05:05:01 15° WSW
Cosmos 1538 Rocket 4.1 04:57:49 15° SSW 05:02:06 63° WNW 05:07:25 10° NNE
Cosmos 1461 3.9 05:00:45 10° WNW 05:03:56 22° WSW 05:06:56 10° SSW
Cosmos 371 Rocket 4.0 05:00:57 18° SW 05:04:05 37° WNW 05:08:34 10° N
ARGOS Delta rocket 3.8 04:59:38 10° N 05:04:40 84° W 05:09:22 10° SSW
CZ-2D R/B 4.3 05:01:33 10° N 05:05:34 36° WNW 05:08:44 15° SW
Cosmos 923 Rocket 4.4 05:01:45 10° S 05:06:53 64° ESE 05:12:02 10° NNE
DELTA 2 R/B (2) 3.2 05:05:37 17° W 05:07:24 64° SSW 05:09:16 10° ESE
CZ-2C R/B 3.8 05:03:17 10° S 05:07:53 55° W 05:12:24 10° NNW
CZ-4B R/B 2.7 05:08:46 10° N 05:12:35 67° WNW 05:16:14 10° SSW
Cosmos 773 Rocket 4.0 05:08:01 10° SSW 05:13:10 85° WNW 05:18:24 10° NNE
ADEOS Rocket 4.1 05:07:43 10° NNE 05:14:20 55° E 05:21:34 10° S
Cosmos 2360 Rocket 2.2 05:11:04 10° SSW 05:16:41 90° E 05:22:22 10° NNE
Cosmos 1980 Rocket 4.2 05:13:58 10° W 05:16:59 14° NW 05:20:02 10° NNW
Cosmos 1328 4.1 05:13:52 10° NNW 05:17:45 47° W 05:21:37 10° SSW
Cosmos 1674 3.9 05:15:42 10° NW 05:18:39 22° W 05:21:25 11° SW
Cosmos 921 Rocket 4.0 05:16:07 10° N 05:20:34 53° ENE 05:24:58 10° SSE
OTV 4 3.2 05:21:28 10° SSE 05:21:34 10° SSE 05:21:42 10° SSE
GRACE-1 4.5 05:19:52 10° SSW 05:22:35 39° W 05:25:20 10° NNW
Meteor 2-20 Rocket 4.4 05:16:57 10° NNW 05:23:00 69° W 05:29:03 10° S
GRACE-2 4.5 05:20:18 10° SSW 05:23:00 38° W 05:25:45 10° NNW
Cosmos 1805 Rocket 3.5 05:22:11 10° NNW 05:26:31 69° W 05:30:51 10° S
Cosmos 2266 Rocket 4.0 05:21:38 10° NNW 05:27:47 71° W 05:34:00 10° S
Cosmos 1346 3.1 05:27:15 10° NNW 05:30:14 54° W 05:33:11 10° S
Cosmos 2322 Rocket 3.4 05:25:41 10° WSW 05:30:19 26° WNW 05:35:00 10° N
Cosmos 2151 3.8 05:27:27 10° NNW 05:31:16 31° W 05:35:03 10° SSW
Meteor PRIRODA 4.1 05:28:28 10° NNE 05:32:08 62° E 05:35:47 10° S
SL-16 R/B 4.1 05:31:03 10° WSW 05:34:11 14° W 05:37:19 10° WNW
Sich 1 3.0 05:31:18 10° N 05:35:39 88° WSW 05:39:59 10° S
Meteor 1-11 4.4 05:34:42 10° NNW 05:40:10 53° W 05:45:39 10° S
CSL-04 DEB 4.3 05:36:45 10° NNE 05:40:41 85° WNW 05:44:39 10° SSW
CZ-3 Stage 3 4.1 05:19:16 10° W 05:43:31 40° SW 05:49:00 10° SSE
